This is the latest recevied weather packets stored in our database for station/object KI5GCD-13. If no packets are shown the sender has not sent any weather packets the latest 10 day(s).
| Time | Temp. | Humidity | Pressure | Rain* | Wind** | Luminosity | Snow |
|---|---|---|---|---|---|---|---|
| 1777567487 | 15.56° C | 55% | 1015 hPa | 0 mm | 0.45 m/s, 260° | - | - |
| 1777567187 | 15.56° C | 56% | 1015.4 hPa | 0 mm | 0 m/s | - | - |
| 1777566887 | 15.56° C | 56% | 1015.4 hPa | 0 mm | 0 m/s | - | - |
| 1777566587 | 15.56° C | 57% | 1015.3 hPa | 0 mm | 0.45 m/s, 224° | - | - |
| 1777566287 | 15.56° C | 57% | 1015.2 hPa | 0 mm | 0 m/s | - | - |
| 1777565987 | 15° C | 57% | 1015.2 hPa | 0 mm | 1.34 m/s, 25° | - | - |
| 1777565687 | 15° C | 57% | 1015.2 hPa | 0 mm | 1.34 m/s, 25° | - | - |
| 1777565387 | 15° C | 58% | 1015.3 hPa | 0 mm | 0 m/s | - | - |
| 1777565087 | 15° C | 59% | 1015.1 hPa | 0 mm | 0 m/s | - | - |
| 1777564787 | 15.56° C | 56% | 1014.9 hPa | 0 mm | 0.45 m/s, 257° | - | - |
| 1777564487 | 15.56° C | 59% | 1015 hPa | 0 mm | 0.45 m/s, 264° | - | - |
| 1777564188 | 15.56° C | 61% | 1014.8 hPa | 0 mm | 0 m/s | - | - |
| 1777563887 | 15.56° C | 63% | 1014.9 hPa | 0 mm | 0 m/s | - | - |
| 1777563587 | 15° C | 60% | 1014.9 hPa | 0 mm | 1.79 m/s, 353° | - | - |
| 1777563287 | 14.44° C | 62% | 1015.1 hPa | 0 mm | 1.79 m/s, 14° | - | - |
| 1777562987 | 14.44° C | 63% | 1014.8 hPa | 0 mm | 1.34 m/s, 57° | - | - |
| 1777562687 | 14.44° C | 62% | 1014.8 hPa | 0 mm | 1.79 m/s, 3° | - | - |
| 1777562387 | 15° C | 64% | 1014.9 hPa | 0 mm | 0.89 m/s, 319° | - | - |
| 1777562087 | 15° C | 66% | 1014.9 hPa | 0 mm | 0 m/s | - | - |
| 1777561787 | 13.89° C | 65% | 1015.2 hPa | 0 mm | 0.45 m/s, 303° | - | - |
| 1777561487 | 14.44° C | 67% | 1014.9 hPa | 0 mm | 0.45 m/s, 136° | - | - |
| 1777561187 | 14.44° C | 69% | 1015.1 hPa | 0 mm | 0 m/s | - | - |
| 1777560887 | 14.44° C | 66% | 1014.9 hPa | 0 mm | 0.45 m/s, 209° | - | - |
| 1777560587 | 14.44° C | 66% | 1014.9 hPa | 0 mm | 0.45 m/s, 247° | - | - |
| 1777560287 | 13.89° C | 70% | 1014.9 hPa | 0 mm | 0.45 m/s, 259° | - | - |
* Rain latest hour (hover to see other rain measurements)
** Current wind speed in m/s (hover to see current wind gust speed)